Wind_Speed
13 13 13 14 16 17 17 14 10 11 14 18 15 18 24 20 17 15 12 12 11 13 19 20 21 12 12 12 8 11 12 13 13 7 7 8 7 7 6 7 7 7 7 7 6 5 6 7 7
14 13 14 14 17 16 17 14 10 10 13 16 19 20 26 19 18 18 15 16 16 15 20 15 16 12 9 11 9 12 13 13 14 12 9 8 7 6 4 6 5 6 7 7 6 4 5 6 7
14 13 13 15 17 18 21 14 10 10 12 16 16 21 28 26 26 26 24 20 17 19 12 12 14 12 12 12 10 12 12 14 13 15 12 9 7 6 4 3 3 4 5 5 4 4 6 7 7
12 13 12 15 17 20 23 16 12 10 14 17 19 21 27 29 30 29 25 19 15 9 8 11 13 15 16 12 12 11 12 13 14 15 12 9 7 6 6 4 4 4 5 4 4 3 4 5 5
9 11 11 14 18 21 24 20 16 13 15 21 23 27 28 26 29 30 23 21 17 11 8 12 13 16 15 14 14 12 13 14 15 15 14 11 8 7 6 5 5 7 7 5 3 2 3 3 4
11 9 10 14 19 23 24 23 20 18 18 20 22 25 25 24 25 27 23 20 16 9 11 15 17 15 12 12 13 13 16 15 16 15 14 12 10 7 6 7 7 8 9 5 4 4 4 3 3
14 10 8 14 19 22 26 25 24 22 21 22 22 23 23 25 24 22 17 16 13 14 14 12 18 17 13 14 17 20 16 15 16 15 14 12 10 8 7 7 8 8 7 4 3 4 3 3 1
13 13 13 12 18 25 29 24 26 26 24 23 19 19 20 21 20 17 17 21 19 19 14 17 22 17 24 22 19 17 17 16 14 15 13 13 12 9 8 9 10 9 7 6 4 4 4 3 3
17 14 16 18 16 25 31 25 25 27 26 26 24 18 17 19 20 18 20 19 17 12 15 19 19 22 18 18 17 17 18 15 14 14 14 13 13 11 10 12 12 11 9 8 8 8 7 6 4
22 17 17 22 20 20 27 26 26 27 25 26 26 20 16 14 14 20 19 17 14 10 11 17 17 15 18 17 17 19 16 15 16 16 15 14 14 13 13 13 12 12 11 12 12 12 10 9 9
27 18 20 26 24 25 26 21 23 26 26 26 27 21 15 15 18 18 21 16 16 14 15 16 20 21 17 16 19 19 16 16 17 17 16 14 15 14 15 13 12 14 13 14 14 14 13 13 13
32 25 23 27 27 25 27 27 22 23 21 25 26 21 18 16 17 16 22 20 20 18 19 21 21 20 19 17 20 17 18 18 17 17 17 16 16 15 14 13 13 15 16 16 15 16 15 16 16
36 31 31 31 32 31 29 31 33 17 20 25 27 22 19 18 18 18 20 23 22 23 23 22 25 24 22 19 21 19 20 20 18 17 17 16 16 16 14 13 13 15 17 17 17 17 17 18 18
40 37 35 35 33 32 29 34 37 20 24 25 30 23 22 21 20 22 19 22 24 29 28 29 29 27 22 22 22 22 23 21 18 18 18 18 18 16 15 13 14 16 17 16 18 19 19 19 19
46 41 41 39 36 37 36 35 34 25 30 29 30 28 27 26 27 26 25 26 29 29 35 34 33 31 26 28 26 26 25 23 22 21 20 19 19 18 18 17 18 20 20 20 19 19 21 21 19
51 49 49 40 41 42 36 33 33 33 35 32 31 32 32 32 32 34 30 31 31 32 31 34 30 29 27 29 30 29 28 26 25 23 21 20 21 22 21 20 21 21 21 20 20 22 23 22 21
61 60 52 45 45 46 39 41 29 36 38 38 36 35 33 35 34 32 29 30 32 30 32 34 30 31 31 31 31 32 31 29 27 24 24 22 22 21 21 22 23 23 23 23 24 25 25 25 25
58 55 51 46 44 46 43 46 38 39 44 44 42 40 38 38 35 28 29 30 33 32 33 37 34 34 33 32 33 33 32 32 27 25 25 22 21 21 22 25 26 26 26 28 27 28 28 29 30
58 59 56 50 49 49 49 48 49 43 45 50 47 44 43 42 39 38 32 31 30 36 39 40 38 39 36 35 34 34 32 31 26 27 30 25 23 24 26 28 29 28 28 30 30 30 31 31 33
60 57 52 57 56 55 54 53 50 50 51 47 50 49 47 46 43 43 35 34 30 28 37 42 39 42 40 38 36 35 35 33 31 27 24 26 29 28 28 29 30 29 30 31 31 31 33 34 35
63 61 58 58 58 55 55 56 47 50 53 52 52 51 49 53 47 44 41 34 34 30 34 38 41 44 42 41 39 37 36 34 31 30 31 31 30 29 30 30 30 30 31 31 32 32 34 35 37
66 61 59 57 57 59 59 56 49 47 52 52 52 48 51 51 48 44 44 37 35 31 36 39 42 45 43 42 41 38 38 36 34 36 33 31 31 32 33 33 32 32 32 33 33 35 37 39 40
58 58 56 59 58 58 57 59 49 48 47 46 45 46 45 46 47 45 40 37 34 38 38 38 38 41 40 40 37 36 36 36 35 35 34 34 34 36 35 35 34 34 35 36 38 39 40 41 43
62 60 63 63 62 63 55 58 57 50 41 41 35 40 39 39 41 41 39 38 38 39 38 38 35 37 40 39 37 36 36 36 37 37 37 37 38 38 38 37 38 40 40 41 42 43 44 45 46
66 63 64 65 67 64 60 67 53 45 45 35 26 33 41 42 43 42 41 38 38 38 36 37 37 37 38 40 42 42 40 40 40 41 40 41 41 41 40 40 42 44 42 42 43 45 46 47 48
49 56 58 60 58 52 52 55 50 44 42 33 25 30 29 32 41 39 39 35 36 34 37 39 36 35 39 43 44 41 40 41 42 45 45 44 43 43 43 44 45 44 44 43 46 47 47 48 48
58 58 52 54 54 55 53 41 49 36 35 31 30 35 32 30 29 32 32 34 32 34 39 39 37 38 40 39 37 40 42 43 46 46 44 45 43 46 44 45 45 49 47 47 47 47 46 48 52
65 61 66 58 54 52 53 51 48 37 35 35 34 29 28 31 34 34 31 35 35 41 41 41 41 43 40 37 39 40 43 46 46 44 43 47 48 48 44 48 46 45 47 46 44 47 50 53 55
71 68 68 68 61 58 59 51 47 36 34 34 31 29 34 33 33 31 33 33 34 38 43 43 42 41 40 38 39 39 43 44 46 46 46 45 42 43 43 45 51 49 45 43 47 51 53 54 54
70 70 67 69 70 66 61 53 49 45 33 28 26 25 19 30 34 33 32 32 32 35 39 45 43 44 43 43 44 43 43 45 46 44 45 46 47 46 47 51 54 42 44 48 51 51 52 54 52
Wind_Direction
251 245 241 239 243 246 250 252 257 252 239 238 235 232 222 236 249 254 265 275 277 294 302 299 303 296 309 303 318 334 334 342 334 341 2 11 5 352 339 4 10 16 16 8 355 358 5 6 4
260 248 241 239 245 249 251 247 250 249 237 233 226 225 220 231 238 235 244 255 272 283 292 293 291 287 290 292 299 316 324 330 328 327 341 350 350 353 348 13 15 27 18 19 18 17 26 14 359
264 254 245 240 242 250 254 242 238 242 235 228 225 225 222 229 238 242 241 248 269 280 282 285 265 272 276 280 293 304 321 317 325 322 325 329 328 333 322 6 355 7 5 356 17 42 46 36 21
271 254 248 243 239 246 256 253 240 227 230 219 227 225 228 233 238 244 250 266 278 295 268 276 270 264 267 268 284 297 311 313 327 316 309 299 294 302 307 329 343 346 344 346 348 21 17 21 10
272 264 249 239 239 243 254 256 250 237 230 223 226 227 234 245 252 250 263 275 272 270 260 272 260 252 252 255 266 286 301 309 319 309 303 288 288 291 301 325 348 341 349 357 330 335 4 1 2
285 278 253 240 239 247 253 256 252 246 236 233 235 243 251 269 274 264 267 267 267 264 274 259 244 245 242 252 270 289 288 302 305 303 295 281 279 280 298 319 334 337 343 352 327 330 349 344 359
273 279 263 246 248 252 253 260 255 253 244 240 241 251 250 264 282 270 268 274 289 289 251 236 225 233 251 261 278 283 281 291 299 298 282 274 273 279 290 305 315 319 324 318 301 309 322 317 16
271 271 278 263 252 251 257 253 256 257 257 253 251 255 257 280 281 265 263 265 284 281 239 222 226 246 255 264 269 275 287 292 294 289 283 278 270 269 276 280 278 283 286 281 255 250 269 277 301
252 264 273 275 271 264 263 260 261 255 260 269 271 263 267 272 286 265 262 271 266 254 213 206 233 249 249 251 265 283 286 286 283 278 274 274 271 270 269 267 261 261 263 252 246 234 231 234 243
248 249 266 260 277 276 280 276 271 266 266 269 270 272 261 267 288 267 255 273 250 235 195 209 220 224 237 255 275 281 279 279 272 266 261 262 265 267 263 267 268 261 253 247 247 244 234 232 234
252 244 254 282 268 277 278 281 275 271 270 275 274 274 270 266 273 277 252 257 236 234 204 210 219 232 246 264 275 272 270 269 263 259 256 254 259 260 262 266 269 265 256 255 254 256 250 247 248
247 244 255 267 265 271 273 276 273 265 273 271 274 276 274 260 265 274 242 250 229 228 228 229 239 242 247 260 266 265 264 260 256 255 258 254 255 254 258 265 266 265 263 260 263 265 263 257 256
246 244 251 254 263 263 270 273 272 275 269 261 262 260 256 252 252 258 245 240 242 233 237 245 247 247 247 256 262 261 256 252 253 252 250 252 256 261 261 265 268 268 270 274 274 271 270 271 269
245 248 246 250 255 259 266 268 268 281 265 262 260 252 246 242 235 234 253 242 239 238 236 241 246 249 253 258 256 255 249 246 247 250 250 252 254 256 259 264 269 270 273 275 276 277 275 273 274
245 245 248 248 249 251 263 268 266 259 263 262 266 264 248 234 227 229 239 241 235 236 239 240 244 253 250 255 251 247 243 244 241 240 245 249 254 255 256 259 261 264 265 267 269 271 272 272 271
250 247 248 246 249 256 265 272 261 255 258 261 263 265 265 252 229 228 233 240 237 239 243 244 245 244 246 249 249 247 244 248 250 247 246 249 253 257 259 263 268 269 266 266 268 268 266 265 262
248 251 251 246 249 255 264 268 258 252 257 255 256 260 263 265 256 235 238 242 245 237 239 249 247 241 242 246 246 248 246 248 248 249 249 247 250 257 262 263 262 259 258 259 261 263 267 268 266
252 254 257 255 253 254 259 261 260 249 256 255 253 256 258 259 263 260 244 235 236 232 229 240 243 242 243 246 248 249 251 252 242 248 253 250 250 250 256 259 260 259 261 262 263 264 265 269 271
252 255 257 257 254 251 260 258 259 257 253 251 253 254 258 258 261 258 254 247 225 224 231 235 239 245 245 244 246 245 251 255 249 251 252 251 251 251 254 259 263 265 266 267 267 267 268 269 270
253 255 254 256 258 259 259 258 260 254 252 253 249 251 254 254 257 259 252 251 237 226 224 235 236 242 241 244 246 244 247 251 252 255 254 247 249 253 255 258 262 265 266 268 272 272 271 272 275
253 254 256 260 261 258 259 258 250 253 251 250 250 252 251 256 253 259 253 249 242 229 226 226 228 238 243 240 243 245 246 249 253 255 254 253 256 257 259 259 259 261 262 263 267 271 272 271 272
244 247 253 256 258 258 258 260 248 249 254 252 251 254 253 253 258 257 253 245 244 233 228 225 229 234 238 238 241 239 240 243 248 252 255 256 256 259 261 262 265 268 270 271 273 274 274 275 276
250 250 251 254 255 253 251 257 250 251 252 256 259 258 260 255 260 263 254 248 241 230 231 231 229 234 237 238 241 238 241 243 247 253 254 256 257 259 261 265 269 272 275 278 277 274 274 275 276
247 247 247 250 252 255 254 262 252 260 261 259 256 253 256 250 253 257 248 242 240 235 231 232 229 234 238 242 244 240 240 245 249 250 252 253 256 259 262 266 271 274 274 274 273 275 276 277 279
239 235 241 247 252 256 257 258 262 265 260 265 256 245 245 252 251 250 240 239 234 235 236 237 238 235 237 239 243 243 243 244 247 250 252 254 257 260 260 267 273 276 274 273 274 275 277 280 282
240 243 244 246 248 252 255 258 259 258 259 262 245 230 238 256 261 252 237 239 231 233 239 238 244 243 240 240 242 244 246 249 252 254 258 260 263 263 264 276 278 275 274 275 277 278 279 281 282
237 236 239 249 252 255 252 247 254 253 252 246 229 227 246 250 254 241 230 235 239 234 237 238 238 239 239 242 247 244 245 250 254 257 259 263 262 266 267 277 278 279 280 278 278 281 283 285 287
240 240 247 253 254 255 254 253 251 253 249 252 249 249 242 242 247 253 243 240 241 230 229 235 235 240 242 242 246 247 251 254 256 258 262 267 267 272 276 279 282 281 280 279 281 283 285 285 286
242 242 244 247 249 252 252 246 248 247 257 253 245 244 241 236 236 245 244 246 238 234 229 232 238 245 250 250 249 248 252 253 252 262 266 269 272 273 274 276 282 281 280 281 283 284 285 286 288
245 243 246 247 246 247 252 241 248 252 248 243 236 233 241 235 236 243 246 242 238 233 230 231 239 246 250 253 256 257 257 253 258 262 268 268 271 273 276 278 279 276 280 285 287 287 288 288 288
Height
5849 5849 5850 5851 5853 5852 5852 5855 5857 5857 5858 5857 5859 5861 5863 5865 5867 5871 5868 5867 5868 5869 5869 5870 5871 5871 5872 5871 5871 5873 5874 5874 5874 5873 5873 5872 5872 5871 5871 5871 5871 5870 5870 5870 5868 5867 5866 5866 5865
5847 5846 5847 5848 5848 5848 5848 5851 5854 5855 5856 5857 5857 5859 5861 5862 5863 5863 5863 5864 5864 5866 5866 5867 5869 5869 5870 5870 5870 5871 5872 5872 5873 5872 5872 5872 5871 5871 5871 5870 5871 5871 5871 5869 5868 5867 5866 5865 5864
5844 5844 5845 5845 5844 5844 5843 5848 5851 5852 5855 5855 5857 5857 5858 5859 5859 5859 5860 5862 5863 5863 5862 5864 5866 5868 5868 5869 5869 5870 5871 5872 5870 5870 5871 5871 5871 5870 5871 5869 5870 5870 5870 5870 5868 5867 5866 5865 5864
5841 5841 5843 5843 5841 5841 5840 5844 5848 5850 5852 5853 5854 5856 5855 5856 5856 5855 5857 5858 5859 5858 5859 5862 5864 5865 5867 5867 5867 5868 5869 5869 5868 5869 5869 5869 5869 5869 5869 5868 5869 5870 5870 5870 5869 5867 5866 5865 5864
5837 5838 5839 5840 5839 5838 5837 5841 5845 5847 5849 5850 5851 5852 5852 5852 5853 5854 5855 5854 5855 5855 5857 5860 5862 5863 5865 5865 5866 5867 5867 5867 5866 5867 5867 5867 5868 5868 5867 5867 5867 5868 5869 5869 5868 5867 5865 5865 5864
5835 5835 5836 5837 5835 5834 5834 5837 5840 5844 5846 5847 5851 5849 5850 5850 5850 5851 5851 5851 5851 5852 5854 5856 5858 5861 5862 5863 5864 5864 5865 5865 5865 5865 5865 5866 5866 5866 5866 5866 5866 5867 5867 5867 5868 5866 5865 5864 5863
5831 5833 5832 5833 5832 5830 5830 5833 5835 5839 5842 5843 5846 5848 5849 5848 5848 5847 5846 5846 5846 5848 5850 5852 5856 5857 5859 5860 5862 5863 5863 5863 5863 5864 5864 5863 5864 5863 5863 5864 5864 5865 5865 5865 5865 5864 5863 5863 5862
5826 5830 5829 5829 5829 5826 5824 5830 5831 5833 5837 5840 5843 5846 5847 5846 5844 5844 5843 5843 5844 5844 5846 5848 5851 5855 5857 5859 5860 5860 5861 5861 5861 5862 5861 5861 5861 5861 5861 5862 5862 5863 5863 5863 5863 5862 5862 5861 5861
5820 5825 5825 5825 5826 5823 5820 5825 5827 5829 5832 5834 5837 5841 5844 5843 5842 5841 5841 5842 5841 5840 5842 5845 5849 5852 5853 5856 5857 5858 5858 5858 5858 5859 5859 5859 5860 5859 5860 5860 5860 5860 5860 5861 5861 5860 5860 5859 5859
5815 5818 5820 5821 5822 5821 5818 5820 5822 5823 5827 5830 5832 5835 5839 5839 5840 5839 5839 5838 5838 5838 5840 5843 5846 5848 5851 5853 5854 5855 5855 5855 5856 5857 5857 5857 5857 5857 5857 5857 5857 5857 5858 5858 5858 5858 5858 5857 5857
5810 5813 5813 5817 5816 5817 5814 5815 5816 5817 5821 5824 5826 5829 5832 5835 5835 5835 5835 5836 5836 5836 5838 5841 5844 5846 5848 5850 5851 5852 5852 5853 5854 5854 5855 5854 5854 5854 5854 5854 5854 5855 5855 5856 5855 5856 5856 5855 5855
5802 5806 5807 5811 5811 5812 5812 5809 5809 5812 5818 5818 5819 5823 5827 5830 5830 5830 5831 5832 5834 5835 5836 5838 5841 5842 5844 5845 5848 5848 5849 5850 5851 5852 5852 5851 5851 5851 5852 5852 5852 5853 5854 5853 5854 5853 5853 5853 5853
5793 5799 5800 5803 5805 5806 5807 5806 5801 5810 5811 5811 5812 5816 5820 5823 5825 5826 5827 5828 5830 5832 5833 5834 5837 5838 5840 5842 5844 5844 5845 5847 5848 5849 5848 5848 5848 5849 5849 5849 5850 5851 5852 5852 5852 5851 5851 5851 5851
5785 5789 5792 5794 5798 5800 5801 5800 5798 5806 5802 5803 5805 5809 5812 5815 5817 5819 5823 5824 5826 5827 5829 5830 5832 5833 5836 5838 5839 5840 5842 5842 5843 5844 5844 5845 5845 5846 5846 5846 5847 5848 5849 5849 5848 5848 5848 5848 5848
5774 5778 5781 5786 5790 5792 5792 5792 5797 5799 5794 5795 5797 5801 5805 5808 5810 5814 5815 5817 5820 5822 5823 5825 5827 5829 5831 5832 5833 5835 5837 5837 5838 5838 5840 5841 5842 5842 5843 5842 5843 5844 5845 5844 5844 5844 5844 5844 5844
5766 5768 5770 5779 5780 5784 5785 5786 5791 5790 5789 5790 5790 5791 5795 5801 5804 5805 5808 5811 5813 5816 5817 5819 5822 5823 5825 5826 5829 5831 5832 5833 5834 5835 5836 5836 5837 5838 5839 5838 5839 5841 5841 5840 5839 5839 5838 5838 5838
5752 5754 5760 5769 5771 5773 5777 5775 5784 5781 5781 5784 5784 5785 5787 5789 5795 5801 5803 5804 5807 5809 5810 5812 5815 5816 5818 5820 5824 5825 5826 5828 5829 5830 5831 5831 5832 5834 5834 5834 5834 5835 5835 5834 5833 5833 5834 5833 5834
5742 5748 5752 5760 5763 5763 5766 5766 5771 5773 5773 5773 5775 5777 5779 5781 5786 5792 5794 5797 5798 5801 5803 5804 5807 5810 5813 5815 5818 5820 5821 5822 5824 5824 5826 5827 5827 5828 5829 5829 5830 5830 5830 5829 5829 5828 5829 5828 5827
5735 5738 5742 5746 5748 5751 5756 5754 5757 5764 5761 5763 5767 5768 5770 5772 5777 5781 5784 5788 5791 5793 5795 5797 5800 5803 5807 5809 5811 5814 5816 5816 5818 5819 5820 5821 5822 5822 5823 5823 5824 5824 5824 5823 5823 5822 5822 5822 5821
5723 5728 5731 5731 5735 5739 5741 5743 5746 5748 5751 5753 5757 5758 5759 5762 5765 5770 5776 5779 5783 5786 5789 5791 5794 5796 5800 5804 5806 5808 5808 5810 5811 5812 5813 5813 5814 5815 5816 5816 5816 5817 5817 5816 5815 5815 5815 5815 5813
5712 5715 5719 5721 5722 5726 5724 5726 5734 5736 5739 5743 5743 5748 5749 5749 5755 5758 5765 5771 5774 5777 5781 5784 5787 5788 5791 5794 5798 5800 5801 5803 5806 5805 5805 5806 5807 5808 5809 5810 5810 5809 5809 5809 5808 5808 5808 5807 5806
5695 5703 5706 5709 5709 5711 5714 5708 5719 5726 5725 5730 5734 5738 5740 5742 5745 5749 5753 5758 5766 5770 5772 5773 5776 5779 5782 5786 5789 5792 5793 5795 5798 5797 5798 5799 5800 5800 5801 5801 5801 5801 5800 5800 5799 5799 5799 5797 5796
5690 5690 5694 5693 5694 5697 5700 5699 5703 5715 5717 5721 5728 5731 5732 5735 5737 5739 5745 5749 5755 5757 5763 5765 5768 5771 5774 5778 5782 5784 5785 5787 5788 5790 5791 5792 5792 5793 5793 5793 5792 5792 5791 5789 5789 5788 5787 5787 5786
5675 5675 5675 5676 5679 5680 5693 5690 5679 5701 5710 5714 5720 5721 5721 5723 5726 5729 5734 5737 5742 5745 5751 5757 5760 5763 5765 5768 5772 5774 5775 5777 5779 5781 5782 5783 5784 5784 5785 5785 5784 5783 5782 5781 5780 5779 5777 5776 5775
5653 5657 5658 5664 5666 5670 5678 5671 5678 5696 5697 5706 5710 5711 5711 5712 5714 5718 5722 5727 5731 5736 5741 5745 5749 5755 5759 5761 5763 5765 5767 5769 5771 5771 5773 5774 5775 5775 5775 5775 5775 5774 5774 5773 5771 5769 5768 5766 5764
5642 5646 5651 5652 5655 5662 5665 5663 5673 5683 5687 5692 5699 5701 5702 5704 5706 5709 5715 5719 5723 5726 5730 5735 5738 5744 5749 5752 5754 5756 5758 5759 5760 5761 5764 5765 5765 5767 5768 5768 5767 5766 5764 5762 5760 5758 5756 5754 5752
5628 5629 5644 5641 5644 5647 5653 5658 5658 5670 5676 5683 5690 5694 5697 5698 5698 5701 5706 5711 5715 5719 5723 5726 5729 5735 5740 5742 5742 5743 5745 5748 5749 5751 5754 5755 5756 5757 5757 5757 5755 5754 5752 5750 5748 5746 5744 5742 5740
5608 5622 5622 5622 5628 5635 5642 5647 5644 5661 5669 5673 5679 5684 5688 5688 5689 5692 5697 5703 5706 5709 5713 5717 5721 5725 5728 5731 5732 5734 5735 5736 5738 5741 5743 5745 5746 5746 5745 5745 5744 5741 5739 5738 5736 5735 5733 5730 5727
5597 5600 5603 5610 5618 5624 5629 5632 5639 5651 5658 5663 5668 5673 5675 5678 5681 5684 5688 5693 5697 5700 5704 5708 5712 5715 5717 5720 5722 5726 5727 5729 5730 5732 5733 5734 5734 5733 5733 5732 5731 5730 5728 5726 5724 5722 5719 5716 5712
5577 5584 5588 5595 5607 5612 5620 5621 5634 5638 5646 5651 5657 5662 5666 5670 5673 5676 5679 5683 5688 5691 5694 5699 5702 5705 5708 5711 5713 5715 5715 5717 5718 5720 5722 5722 5722 5721 5721 5720 5719 5718 5717 5715 5712 5709 5706 5702 5699